sat.trackr.live / text

‹ back to catalog

STARLINK-5922

NORAD 55925 · 2023-037M

PAYLOAD ACTIVE UNKNOWN

§ Identity

Operator
Country
US
Launch date
2023-03-17
Launch site
AFWTR
Launch vehicle
Mass (kg)
RCS (m²)

Purposes: comms

External: N2YO · Heavens-Above · Gunter

§ Orbital elements

Epoch: 2026-05-25T03:51:06.664320Z

Period
96.11 min
Inclination
69.9993°
Eccentricity
0.0003263
Mean motion
14.98330435 rev/d
Perigee alt
569.8 km
Apogee alt
574.3 km
Semi-major
6,950.2 km
B*
-1.1870e-5
RAAN
111.5720°
Arg perigee
268.4915°
Mean anomaly
91.5870°
Rev number
17,494

§ Raw data

STARLINK-59221 55925U 23037M   26145.16049380 -.00000235  00000+0 -11870-4 0  99922 55925  69.9993 111.5720 0003263 268.4915  91.5870 14.98330435174944

JSON: /api/v1/satellites/55925 · /tle

For live sub-satellite position, see the globe view (requires WebGL).

§ Visibility from observer

Set your observer location to see the next 7 days of passes ≥ 10°. The values pass through the URL so the page stays shareable.

No JS? Fill the form by hand. The geolocation button needs JavaScript.